1504317600.3,13478,21.75,73730.8,4.65,0.21,-0.19,0,*55
1504317601.46,13479,21.75,73730.0,4.65,-0.07,-0.29,0,*4E
1504317602.7,13480,21.75,73726.3,4.67,0.37,0.59,0,*7E
1504317603.91,13481,21.75,73724.3,4.69,0.75,0.33,0,*7B
1504317605.12,13482,21.75,73722.0,4.69,-0.23,-1.29,0,*41
1504317606.34,13483,21.75,73724.8,4.73,-1.05,-1.79,0,*7B
1504317607.51,13484,21.75,73726.0,4.73,-0.29,-0.69,0,*73
1504317608.69,13485,21.75,73726.5,4.73,-0.03,-1.17,0,*72
1504317609.93,13486,21.75,73724.5,4.73,-1.87,-1.35,0,*7C
1504317611.14,13487,21.75,73722.0,4.73,-0.41,-0.27,0,*74
1504317612.33,13488,21.75,73726.8,4.73,0.09,0.79,0,*4C
1504317613.51,13489,21.75,73724.3,4.73,0.09,0.67,0,*42
1504317614.7,13490,21.75,73732.8,4.73,0.17,0.43,0,*73
1504317615.9,13491,21.75,73728.5,4.73,-0.15,0.21,0,*59
1504317617.14,13492,21.75,73734.8,4.73,-1.43,-1.05,0,*72
1504317618.36,13493,21.75,73726.0,4.73,-4.09,-2.67,0,*7F
1504317619.55,13494,21.75,73720.8,4.73,-3.91,-2.91,0,*77
1504317620.77,13495,21.75,73730.3,4.73,-3.63,-2.23,0,*72
1504317621.98,13496,21.75,73730.5,4.73,-2.11,-0.65,0,*45
1504317623.18,13497,21.75,73730.8,4.73,-2.39,-0.27,0,*48
1504317624.36,13498,21.75,73726.0,4.73,-2.27,-0.81,0,*44
1504317625.61,13499,21.75,73716.5,4.73,-2.63,-2.51,0,*7A
1504317626.8,13500,21.75,73718.3,4.73,-3.91,-2.43,0,*74
1504317628.04,13501,21.75,73718.5,4.75,-1.91,-1.29,0,*7E
1504317629.29,13502,21.75,73718.3,4.77,-2.47,-1.83,0,*77
1504317630.5,13503,21.75,73718.5,4.75,-2.43,-0.81,0,*43
1504317631.69,13504,21.75,73720.8,4.77,-1.25,-0.73,0,*48
1504317632.88,13505,21.75,73716.0,4.77,-1.33,-0.73,0,*4E
1504317634.09,13506,21.75,73718.3,4.77,-1.33,-0.85,0,*44
1504317635.29,13507,21.75,73722.3,4.81,-1.21,-0.41,0,*47
1504317636.49,13508,21.75,73718.0,4.81,-0.93,-0.73,0,*71
1504317637.7,13509,21.75,73716.5,4.81,-1.05,-0.29,0,*41
1504317638.88,13510,21.75,73716.8,4.85,-0.57,0.05,0,*68
1504317640.06,13511,21.75,73716.8,4.85,-0.65,-0.19,0,*78
1504317641.27,13512,21.75,73722.3,4.85,-0.89,-0.15,0,*75
1504317642.48,13513,21.75,73722.0,4.87,-0.77,-0.49,0,*7E
1504317643.69,13514,21.75,73722.0,4.87,-0.81,-0.41,0,*78
1504317644.92,13515,21.75,73720.5,4.87,-0.69,-0.27,0,*7F
1504317646.14,13516,21.75,73722.5,4.87,-0.37,-0.41,0,*77
1504317647.36,13517,21.75,73724.0,4.91,-0.93,-0.69,0,*75
1504317648.56,13518,21.75,73722.5,4.91,-0.81,-0.61,0,*71
1504317649.77,13519,21.75,73720.8,4.89,-1.21,-0.97,0,*4B
1504317650.98,13520,21.75,73724.8,4.91,-1.33,-0.69,0,*4A
1504317652.21,13521,21.75,73722.8,4.91,-1.95,-1.59,0,*75
1504317653.48,13522,21.75,73722.3,4.91,-3.43,-1.83,0,*78
1504317654.71,13523,21.75,73722.3,4.91,-3.07,-1.91,0,*7A
1504317655.98,13524,21.75,73726.8,4.91,-3.63,-1.87,0,*78
1504317657.21,13525,21.75,73716.8,4.91,-3.35,-1.95,0,*79
1504317658.46,13526,21.75,73718.0,4.89,-3.47,-2.07,0,*7E
1504317659.7,13527,21.75,73720.0,4.93,-3.11,-2.03,0,*73
1504317660.95,13528,21.75,73716.5,4.93,-6.43,-4.73,0,*7F
1504317662.18,13529,21.75,73718.3,4.93,-5.43,-3.63,0,*7B
1504317663.43,13530,21.75,73724.5,4.93,-5.31,-2.99,0,*72
1504317664.67,13531,21.75,73724.5,4.91,-4.25,-1.35,0,*70
1504317665.94,13532,21.75,73724.5,4.91,-3.43,-1.39,0,*78
1504317667.18,13533,21.75,73726.3,4.91,-5.93,-2.87,0,*74
1504317668.42,13534,21.75,73724.8,4.89,-4.01,-2.07,0,*78
1504317669.63,13535,21.75,73728.5,4.89,-4.49,-2.71,0,*74
1504317670.85,13536,21.75,73728.5,4.89,-4.01,-2.39,0,*77
1504317672.07,13537,21.75,73724.8,4.89,-3.87,-2.71,0,*73
1504317673.28,13538,21.75,73730.8,4.89,-4.01,-2.39,0,*79
1504317674.47,13539,21.75,73728.8,4.89,-2.99,-1.29,0,*7D
1504317675.68,13540,21.75,73730.3,4.89,-2.91,-1.35,0,*76
1504317676.89,13541,21.75,73722.8,4.89,-4.49,-2.71,0,*77
1504317678.12,13542,21.75,73724.0,4.89,-4.89,-2.11,0,*7E
1504317679.36,13543,21.75,73724.5,4.89,-3.51,-1.47,0,*7D
1504317680.55,13544,21.75,73722.5,4.89,-3.11,-1.75,0,*7F
1504317681.76,13545,21.75,73724.0,4.89,-2.99,-1.83,0,*76
1504317683.0,13546,21.75,73720.8,4.89,-2.75,-1.99,0,*7C
1504317684.2,13547,21.75,73722.5,4.89,-2.51,-1.59,0,*77
1504317685.44,13548,21.75,73726.8,4.89,-1.87,-1.01,0,*7D
1504317686.65,13549,21.75,73726.3,4.89,-1.95,-1.29,0,*75
1504317687.86,13550,21.75,73724.0,4.89,-2.11,-1.63,0,*7C
1504317689.08,13551,21.75,73726.3,4.89,-1.95,-0.85,0,*4B
1504317690.29,13552,21.75,73726.3,4.89,-1.71,-0.85,0,*42
1504317691.52,13553,21.75,73724.3,4.91,-1.59,-1.09,0,*75
1504317692.76,13554,21.75,73722.5,4.91,-1.71,-1.05,0,*74
1504317693.96,13555,21.75,73722.8,4.91,-1.67,-0.69,0,*49
1504317695.19,13556,21.75,73722.0,4.93,-1.21,-0.73,0,*41
1504317696.41,13557,21.75,73722.3,4.93,-1.33,-0.81,0,*4E
1504317697.63,13558,21.75,73724.3,4.93,-1.71,-1.17,0,*79
1504317698.88,13559,21.75,73724.3,4.93,-1.55,-1.35,0,*7E
1504317700.1,13560,21.75,73726.5,4.95,-1.87,-1.51,0,*7F
1504317701.32,13561,21.75,73724.8,4.93,-3.11,-2.23,0,*73
1504317702.54,13562,21.75,73720.3,4.95,-3.07,-2.07,0,*77
1504317703.76,13563,21.75,73722.3,4.95,-2.51,-1.67,0,*71
1504317704.98,13564,21.75,73722.8,4.95,-2.15,-1.91,0,*7F
1504317706.17,13565,21.75,73722.5,4.95,-2.39,-1.67,0,*79
1504317707.39,13566,21.75,73726.0,4.95,-2.99,-2.11,0,*72
1504317708.61,13567,21.75,73730.3,4.95,-2.67,-1.55,0,*71
1504317709.8,13568,21.75,73726.0,4.95,-2.19,-1.55,0,*77
1504317711.0,13569,21.75,73724.3,4.95,-2.95,-2.31,0,*73
1504317712.26,13570,21.75,73724.3,4.93,-4.21,-2.67,0,*77
1504317713.51,13571,21.75,73728.3,4.93,-3.71,-2.31,0,*77
1504317714.73,13572,21.75,73724.3,4.95,-2.95,-1.91,0,*70
1504317715.97,13573,21.75,73726.0,4.97,-3.39,-2.55,0,*7F
1504317717.19,13574,21.75,73726.0,4.95,-3.07,-1.91,0,*7C
1504317718.39,13575,21.75,73726.3,4.95,-2.95,-2.19,0,*74
1504317719.62,13576,21.75,73730.5,4.95,-2.75,-1.79,0,*7C
1504317720.86,13577,21.75,73730.3,4.93,-2.11,-1.75,0,*75
1504317722.11,13578,21.75,73732.0,4.95,-2.67,-2.07,0,*7B
1504317723.33,13579,21.75,73730.5,4.95,-2.79,-1.99,0,*71
1504317724.55,13580,21.75,73730.5,4.95,-2.55,-1.75,0,*7B
1504317725.8,13581,21.75,73732.3,4.95,-2.55,-2.03,0,*78
1504317727.02,13582,21.75,73730.3,4.95,-3.51,-2.39,0,*77
1504317728.27,13583,21.75,73728.3,4.95,-3.59,-2.67,0,*75
1504317729.52,13584,21.75,73730.5,4.95,-3.43,-2.55,0,*78
1504317730.71,13585,21.75,73734.5,4.95,-2.91,-2.15,0,*73
1504317731.97,13586,21.75,73738.3,4.97,-2.55,-2.03,0,*7D
1504317733.16,13587,21.75,73740.5,4.95,-2.91,-2.19,0,*7D
1504317734.38,13588,21.75,73740.5,4.95,-3.55,-2.39,0,*79
1504317735.61,13589,21.75,73738.0,4.95,-6.27,-3.67,0,*72
1504317736.83,13590,21.75,73734.0,4.93,-6.55,-3.87,0,*77
1504317738.08,13591,21.75,73732.5,4.93,-6.31,-3.59,0,*77
1504317739.3,13592,21.75,73732.0,4.93,-5.55,-3.19,0,*71
1504317740.54,13593,21.75,73734.5,4.93,-5.15,-3.35,0,*7A
1504317741.79,13594,21.75,73730.5,4.93,-6.85,-5.15,0,*73
1504317743.03,13595,21.75,73724.3,4.93,-6.73,-4.77,0,*7E
1504317744.24,13596,21.75,73728.8,4.89,-6.27,-4.65,0,*74
1504317745.5,13597,21.75,73732.5,4.91,-5.27,-3.59,0,*77
1504317746.73,13598,21.75,73728.0,4.91,-4.73,-3.35,0,*72
1504317747.96,13599,21.75,73732.0,4.91,-4.77,-3.11,0,*71
1504317749.16,13600,21.75,73734.5,4.89,-4.93,-2.87,0,*7F
1504317750.34,13601,21.75,73732.0,4.89,-4.53,-2.87,0,*72
1504317751.53,13602,21.75,73730.5,4.89,-4.25,-2.91,0,*77
1504317752.7,13603,21.75,73734.5,4.89,-4.37,-2.83,0,*76
1504317753.96,13604,21.75,73732.3,4.91,-5.27,-3.71,0,*74
1504317755.19,13605,21.75,73736.0,4.91,-5.23,-3.31,0,*75
1504317756.4,13606,21.75,73730.8,4.89,-5.27,-3.23,0,*78
1504317757.61,13607,21.75,73728.0,4.89,-7.53,-4.89,0,*7F
1504317758.85,13608,21.75,73724.0,4.89,-7.57,-4.69,0,*7A
1504317760.07,13609,21.75,73722.0,4.87,-6.89,-3.91,0,*77
1504317761.28,13610,21.75,73722.0,4.85,-5.35,-2.75,0,*72
1504317762.47,13611,21.75,73724.3,4.85,-4.05,-2.15,0,*77
1504317763.65,13612,21.75,73726.3,4.85,-2.91,-1.55,0,*78
1504317764.87,13613,21.75,73722.5,4.85,-2.55,-1.63,0,*74
1504317766.09,13614,21.75,73724.8,4.85,-3.51,-2.31,0,*72
1504317767.31,13615,21.75,73724.5,4.85,-4.33,-2.67,0,*73
1504317768.58,13616,21.75,73724.0,4.87,-3.51,-1.91,0,*7B
1504317769.78,13617,21.75,73720.8,4.87,-4.99,-3.95,0,*7F
1504317771.02,13618,21.75,73720.5,4.87,-6.27,-5.39,0,*77
1504317772.24,13619,21.75,73718.3,4.85,-5.31,-4.29,0,*70
1504317773.43,13620,21.75,73716.8,4.85,-4.33,-3.19,0,*7D
1504317774.61,13621,21.75,73722.8,4.85,-4.53,-2.87,0,*7C
1504317775.82,13622,21.75,73724.0,4.85,-5.65,-4.09,0,*7B
1504317777.04,13623,21.75,73724.0,4.85,-7.19,-4.73,0,*7E
1504317778.23,13624,21.75,73726.0,4.85,-6.77,-4.61,0,*73
1504317779.46,13625,21.75,73726.8,4.85,-7.11,-5.07,0,*72
1504317780.7,13626,21.75,73722.0,4.81,-6.97,-4.89,0,*7D
1504317781.92,13627,21.75,73720.3,4.81,-5.77,-4.09,0,*79
1504317783.14,13628,21.75,73714.0,4.81,-6.55,-4.89,0,*7D
1504317784.32,13629,21.75,73722.0,4.81,-6.47,-4.37,0,*7A
1504317785.56,13630,21.69,73718.5,4.79,-5.35,-3.55,0,*70
1504317786.76,13631,21.75,73716.8,4.79,-6.69,-4.45,0,*7D
1504317788.01,13632,21.75,73720.5,4.79,-5.89,-4.25,0,*75
1504317789.25,13633,21.75,73722.8,4.79,-7.35,-5.43,0,*70
1504317790.43,13634,21.75,73716.8,4.81,-8.21,-6.05,0,*7B
1504317791.68,13635,21.75,73712.0,4.79,-7.65,-5.51,0,*70
1504317792.95,13636,21.75,73714.8,4.79,-7.27,-5.23,0,*70
1504317794.17,13637,21.75,73710.0,4.77,-7.53,-5.31,0,*7F
1504317795.43,13638,21.75,73708.8,4.75,-7.61,-5.77,0,*71
1504317796.66,13639,21.75,73714.5,4.77,-7.53,-5.27,0,*76
1504317797.9,13640,21.75,73720.3,4.75,-6.27,-4.53,0,*7A
1504317799.12,13641,21.75,73722.8,4.77,-7.11,-4.89,0,*7A
1504317800.35,13642,21.75,73724.3,4.77,-6.77,-5.03,0,*7B
1504317801.56,13643,21.75,73726.5,4.75,-6.69,-4.53,0,*73
1504317802.77,13644,21.75,73724.5,4.75,-6.39,-4.09,0,*7E
1504317804.05,13645,21.75,73724.8,4.75,-7.43,-5.23,0,*7A
1504317805.32,13646,21.75,73728.0,4.75,-7.31,-5.23,0,*7C
1504317806.55,13647,21.75,73718.5,4.75,-8.37,-6.23,0,*77
1504317807.83,13648,21.75,73716.5,4.75,-7.95,-5.61,0,*7A
1504317809.06,13649,21.75,73716.3,4.73,-7.69,-5.65,0,*7A
1504317810.25,13650,21.75,73720.0,4.73,-6.43,-4.41,0,*7C
1504317811.47,13651,21.75,73722.8,4.73,-7.05,-4.53,0,*7D
1504317812.69,13652,21.75,73720.3,4.73,-7.23,-5.07,0,*7A
1504317813.9,13653,21.75,73722.8,4.73,-6.27,-4.05,0,*7D
1504317815.08,13654,21.69,73720.5,4.73,-5.43,-4.09,0,*77
1504317816.27,13655,21.75,73722.0,4.73,-7.83,-6.01,0,*72
1504317817.48,13656,21.75,73718.0,4.73,-8.51,-6.39,0,*7A
1504317818.67,13657,21.75,73710.5,4.73,-8.25,-5.97,0,*7F
1504317819.91,13658,21.75,73704.8,4.73,-7.73,-5.65,0,*71
1504317821.13,13659,21.75,73702.3,4.73,-7.87,-5.19,0,*70
1504317822.33,13660,21.75,73702.3,4.73,-5.51,-2.23,0,*7D
1504317823.54,13661,21.75,73698.5,4.69,-3.59,-0.73,0,*4E
1504317824.77,13662,21.69,73694.3,4.67,-1.83,0.09,0,*56
1504317825.97,13663,21.75,73696.3,4.69,-0.41,0.33,0,*5F
1504317827.18,13664,21.75,73696.5,4.69,0.33,0.33,0,*70
1504317828.39,13665,21.75,73700.8,4.73,0.59,0.59,0,*7A
1504317829.61,13666,21.75,73704.3,4.73,0.95,1.09,0,*4D
1504317830.84,13667,21.75,73706.3,4.73,1.09,1.17,0,*77
1504317832.08,13668,21.75,73714.8,4.73,1.21,1.33,0,*74
1504317833.33,13669,21.75,73716.0,4.75,1.51,1.63,0,*71
1504317834.56,13670,21.75,73720.8,4.75,1.79,1.63,0,*73
1504317835.81,13671,21.75,73722.3,4.75,1.29,0.79,0,*4D
1504317837.01,13672,21.75,73722.8,4.75,0.05,-0.07,0,*55
1504317838.22,13673,21.75,73722.8,4.75,-1.55,-1.55,0,*7B
1504317839.46,13674,21.75,73722.8,4.75,-2.99,-2.63,0,*79
1504317840.68,13675,21.75,73716.3,4.75,-3.83,-3.31,0,*74
1504317841.92,13676,21.75,73716.3,4.75,-5.11,-4.33,0,*7F
1504317843.14,13677,21.75,73716.3,4.75,-6.51,-5.35,0,*7E
1504317844.4,13678,21.75,73718.8,4.75,-6.93,-5.73,0,*7D
1504317845.65,13679,21.75,73712.8,4.75,-7.15,-5.85,0,*7A
1504317846.89,13680,21.75,73710.5,4.73,-7.73,-6.23,0,*75
1504317848.11,13681,21.75,73710.5,4.73,-8.11,-6.51,0,*7A
1504317849.32,13682,21.75,73710.5,4.73,-7.95,-5.97,0,*73
1504317850.54,13683,21.75,73710.3,4.73,-7.23,-5.07,0,*76
1504317851.73,13684,21.75,73708.0,4.73,-6.09,-3.95,0,*75
1504317852.96,13685,21.75,73708.3,4.73,-6.27,-4.73,0,*77
1504317854.17,13686,21.69,73706.3,4.69,-7.27,-5.39,0,*71
1504317855.41,13687,21.75,73710.5,4.69,-7.39,-5.15,0,*71
1504317856.6,13688,21.75,73684.8,4.69,-8.71,-6.69,0,*75
1504317857.85,13689,21.75,73688.5,4.67,-9.15,-6.73,0,*72
1504317859.09,13690,21.75,73694.5,4.67,-6.63,-4.61,0,*75
1504317860.32,13691,21.75,73694.5,4.67,-7.31,-5.43,0,*73
1504317861.59,13692,21.69,73692.3,4.67,-7.69,-5.73,0,*7E
1504317862.82,13693,21.75,73702.8,4.67,-7.39,-5.51,0,*7A
1504317864.04,13694,21.75,73698.0,4.65,-6.89,-5.19,0,*79
1504317865.27,13695,21.75,73694.0,4.65,-7.95,-5.77,0,*7C
1504317866.52,13696,21.75,73690.3,4.63,-7.83,-5.89,0,*7F
1504317867.76,13697,21.75,73694.5,4.65,-7.43,-5.11,0,*75
1504317868.97,13698,21.75,73698.3,4.65,-6.27,-4.29,0,*73
1504317870.15,13699,21.75,73696.3,4.65,-6.01,-3.75,0,*78
1504317871.36,13700,21.69,73688.8,4.65,-6.63,-4.65,0,*7B
1504317872.55,13701,21.69,73692.0,4.65,-6.35,-4.41,0,*7F
1504317873.79,13702,21.75,73698.5,4.67,-6.89,-4.73,0,*78
1504317875.02,13703,21.75,73702.8,4.67,-4.77,-3.35,0,*7F
1504317876.24,13704,21.69,73700.3,4.67,-5.39,-3.83,0,*7E
1504317877.47,13705,21.75,73702.8,4.67,-6.05,-3.47,0,*7B
1504317878.71,13706,21.75,73710.5,4.67,-6.19,-3.91,0,*7E
1504317879.93,13707,21.69,73706.3,4.67,-7.15,-5.39,0,*76
1504317881.2,13708,21.75,73708.5,4.63,-7.73,-5.77,0,*77
1504317882.42,13709,21.75,73712.8,4.63,-6.47,-4.29,0,*7A
1504317883.63,13710,21.75,73712.3,4.65,-6.89,-5.19,0,*74
1504317884.9,13711,21.75,73708.3,4.67,-7.77,-5.61,0,*78
1504317886.15,13712,21.75,73712.3,4.63,-7.57,-5.55,0,*7A
1504317887.41,13713,21.75,73712.3,4.63,-7.57,-5.55,0,*7B
1504317888.67,13714,21.75,73714.0,4.63,-7.69,-5.73,0,*75
1504317889.92,13715,21.69,73712.3,4.63,-7.57,-5.55,0,*7D
1504317891.19,13716,21.69,73714.3,4.63,-7.95,-5.85,0,*7D
1504317892.46,13717,21.75,73718.5,4.63,-7.31,-5.31,0,*7D
1504317893.67,13718,21.75,73718.3,4.63,-7.15,-4.99,0,*77
1504317894.9,13719,21.75,73726.5,4.63,-7.87,-5.55,0,*7C
1504317896.11,13720,21.75,73722.0,4.61,-7.87,-5.65,0,*77
1504317897.34,13721,21.75,73722.5,4.61,-7.87,-5.61,0,*72
1504317898.58,13722,21.75,73718.0,4.61,-8.11,-5.93,0,*7C
1504317899.8,13723,21.69,73708.0,4.61,-8.41,-6.27,0,*74
1504317900.99,13724,21.75,73716.8,4.61,-8.67,-6.55,0,*72
1504317902.18,13725,21.69,73716.8,4.57,-8.67,-6.43,0,*71
1504317903.42,13726,21.75,73716.5,4.57,-8.11,-5.77,0,*77
1504317904.66,13727,21.69,73712.8,4.55,-7.95,-5.97,0,*79
1504317905.92,13728,21.69,73714.8,4.55,-8.03,-5.31,0,*7A
1504317907.14,13729,21.69,73716.5,4.55,-7.23,-5.35,0,*72
1504317908.4,13730,21.75,73720.3,4.55,-7.77,-5.65,0,*7E
1504317909.61,13731,21.69,73716.5,4.53,-8.29,-6.23,0,*7C
1504317910.85,13732,21.75,73714.5,4.53,-8.81,-6.63,0,*79
1504317912.06,13733,21.75,73710.3,4.53,-8.29,-5.77,0,*7C
1504317913.25,13734,21.75,73708.5,4.53,-8.29,-5.97,0,*75
1504317914.43,13735,21.75,73710.0,4.53,-8.29,-5.97,0,*74
1504317915.65,13736,21.69,73714.8,4.53,-7.69,-5.35,0,*74
1504317916.89,13737,21.75,73712.8,4.53,-8.51,-6.23,0,*75
1504317918.1,13738,21.75,73718.3,4.53,-8.29,-5.77,0,*77
1504317919.37,13739,21.69,73716.3,4.51,-7.43,-5.11,0,*77
1504317920.61,13740,21.69,73718.5,4.51,-6.59,-4.81,0,*7B
1504317921.83,13741,21.75,73722.5,4.51,-6.51,-4.41,0,*7E
1504317923.04,13742,21.75,73726.0,4.49,-6.69,-5.19,0,*73
1504317924.29,13743,21.75,73724.0,4.49,-7.77,-5.61,0,*73
1504317925.55,13744,21.75,73720.5,4.51,-7.99,-5.61,0,*7D
1504317926.8,13745,21.69,73720.8,4.49,-8.11,-5.81,0,*74
1504317928.04,13746,21.69,73718.5,4.51,-8.29,-5.85,0,*71
1504317929.22,13747,21.75,73714.3,4.49,-8.29,-5.97,0,*7A
1504317930.45,13748,21.75,73712.8,4.49,-8.55,-6.19,0,*7B
1504317931.66,13749,21.75,73712.3,4.51,-8.37,-6.13,0,*7D
1504317932.87,13750,21.75,73716.3,4.49,-7.99,-5.47,0,*75
1504317934.12,13751,21.75,73722.3,4.49,-7.43,-5.23,0,*71
1504317935.39,13752,21.69,73724.0,4.51,-6.93,-5.07,0,*71
1504317936.66,13753,21.75,73724.8,4.51,-7.99,-5.89,0,*7D
1504317937.88,13754,21.69,73718.5,4.49,-8.71,-6.63,0,*7D
1504317939.07,13755,21.69,73718.3,4.49,-8.67,-6.43,0,*79
1504317940.27,13756,21.69,73718.8,4.49,-8.71,-6.51,0,*7E
1504317941.49,13757,21.69,73718.3,4.47,-8.67,-6.51,0,*76
1504317942.71,13758,21.69,73718.8,4.47,-8.85,-6.55,0,*71
1504317943.9,13759,21.69,73710.8,4.45,-8.97,-6.69,0,*7E
1504317945.11,13760,21.75,73710.3,4.45,-8.21,-5.93,0,*7F
1504317946.35,13761,21.69,73710.0,4.43,-7.65,-5.39,0,*77
1504317947.59,13762,21.69,73714.0,4.43,-7.11,-4.77,0,*7C
1504317948.79,13763,21.75,73716.5,4.45,-6.09,-4.13,0,*71
1504317950.03,13764,21.75,73722.5,4.45,-5.69,-4.01,0,*70
1504317951.21,13765,21.69,73722.5,4.45,-6.09,-4.17,0,*73
1504317952.43,13766,21.69,73716.0,4.45,-7.53,-5.15,0,*7D
1504317953.65,13767,21.69,73718.3,4.45,-8.17,-5.81,0,*7E
1504317954.88,13768,21.69,73718.3,4.45,-7.95,-5.77,0,*7D
1504317956.12,13769,21.69,73716.0,4.45,-8.03,-5.85,0,*71
1504317957.35,13770,21.69,73716.3,4.45,-7.39,-5.77,0,*72
1504317958.54,13771,21.69,73712.0,4.45,-8.37,-6.05,0,*74
1504317959.73,13772,21.69,73714.0,4.45,-6.59,-4.53,0,*70
1504317960.92,13773,21.69,73712.3,4.45,-5.43,-3.87,0,*77
1504317962.18,13774,21.69,73714.5,4.47,-5.03,-3.59,0,*75
1504317963.43,13775,21.69,73710.0,4.47,-6.19,-4.61,0,*70
1504317964.67,13776,21.69,73710.8,4.47,-6.55,-4.69,0,*73
1504317965.92,13777,21.69,73708.0,4.47,-7.19,-5.03,0,*76
1504317967.13,13778,21.69,73714.0,4.47,-4.99,-3.31,0,*75
1504317968.33,13779,21.69,73714.8,4.47,-4.37,-3.07,0,*75
1504317969.56,13780,21.69,73716.5,4.49,-4.69,-3.43,0,*76
1504317970.79,13781,21.69,73716.8,4.51,-4.93,-3.15,0,*78
1504317972.02,13782,21.69,73716.8,4.49,-5.03,-3.55,0,*7E
1504317973.26,13783,21.69,73720.0,4.51,-5.19,-3.79,0,*73
1504317974.47,13784,21.69,73716.8,4.49,-5.51,-3.47,0,*7C
1504317975.71,13785,21.69,73716.5,4.49,-5.93,-3.47,0,*73
1504317976.92,13786,21.75,73720.3,4.49,-6.01,-3.43,0,*7C
1504317978.11,13787,21.69,73718.3,4.49,-5.47,-3.19,0,*73
1504317979.31,13788,21.69,73720.8,4.49,-4.93,-2.83,0,*76
1504317980.5,13789,21.69,73716.8,4.49,-4.49,-2.91,0,*73
1504317981.74,13790,21.69,73720.8,4.51,-4.33,-2.75,0,*75
1504317982.95,13791,21.69,73726.3,4.51,-4.05,-2.15,0,*77
1504317984.15,13792,21.69,73726.0,4.49,-3.91,-1.63,0,*75
1504317985.4,13793,21.69,73726.5,4.49,-3.59,-1.39,0,*7F
1504317986.59,13794,21.69,73722.8,4.49,-3.03,-2.79,0,*70
1504317987.81,13795,21.69,73720.5,4.51,-5.73,-4.45,0,*70
1504317989.05,13796,21.69,73714.3,4.51,-5.77,-4.09,0,*7F
1504317990.28,13797,21.69,73716.0,4.51,-4.81,-3.11,0,*78
1504317991.49,13798,21.69,73720.0,4.51,-4.33,-2.91,0,*77
1504317992.68,13799,21.75,73724.5,4.49,-4.45,-3.91,0,*7F
1504317993.95,13800,21.69,73718.3,4.51,-6.93,-5.31,0,*7C
1504317995.21,13801,21.69,73712.3,4.51,-7.27,-5.23,0,*70
1504317996.43,13802,21.69,73712.3,4.49,-7.43,-5.35,0,*7F
1504317997.64,13803,21.69,73714.5,4.51,-7.15,-4.99,0,*73
1504317998.86,13804,21.69,73714.0,4.51,-6.39,-4.21,0,*78
1504318000.1,13805,21.69,73714.5,4.51,-6.69,-5.03,0,*7D
1504318001.35,13806,21.69,73712.3,4.51,-5.85,-3.67,0,*7B
1504318002.57,13807,21.69,73714.3,4.51,-6.47,-4.53,0,*77
1504318003.77,13808,21.69,73714.5,4.51,-4.99,-3.31,0,*7A
1504318004.97,13809,21.69,73718.3,4.51,-4.45,-2.79,0,*77
1504318006.19,13810,21.69,73720.3,4.51,-3.91,-2.27,0,*7A
1504318007.41,13811,21.69,73716.8,4.53,-5.31,-4.41,0,*73
1504318008.6,13812,21.69,73716.5,4.53,-6.35,-4.09,0,*7B
1504318009.85,13813,21.69,73722.8,4.55,-5.85,-4.29,0,*76
1504318011.09,13814,21.69,73718.3,4.53,-5.85,-4.01,0,*7D
1504318012.31,13815,21.69,73718.3,4.53,-6.63,-4.65,0,*75
1504318013.55,13816,21.69,73718.8,4.53,-5.77,-3.43,0,*73
1504318014.79,13817,21.69,73712.3,4.55,-4.65,-2.75,0,*72
1504318015.98,13818,21.69,73716.8,4.53,-4.29,-3.11,0,*70
1504318017.22,13819,21.69,73718.5,4.55,-4.25,-2.75,0,*78
1504318018.44,13820,21.69,73714.3,4.55,-5.55,-4.41,0,*75
1504318019.65,13821,21.69,73722.0,4.55,-6.47,-4.17,0,*77
1504318020.89,13822,21.69,73722.5,4.55,-4.89,-3.39,0,*7F
1504318022.1,13823,21.69,73716.8,4.55,-4.37,-3.11,0,*71
1504318023.35,13824,21.69,73720.8,4.55,-4.85,-3.59,0,*73
1504318024.57,13825,21.69,73720.5,4.55,-4.65,-3.27,0,*75
1504318025.78,13826,21.75,73724.5,4.53,-4.89,-4.09,0,*79
1504318027.02,13827,21.69,73726.8,4.55,-5.03,-3.83,0,*78
1504318028.24,13828,21.69,73722.8,4.55,-5.55,-3.83,0,*74
1504318029.48,13829,21.69,73722.8,4.55,-5.65,-4.13,0,*78
1504318030.72,13830,21.69,73724.8,4.55,-5.69,-4.37,0,*7A
1504318031.97,13831,21.69,73726.8,4.55,-5.81,-4.29,0,*72
1504318033.21,13832,21.69,73724.8,4.55,-5.85,-4.37,0,*7A
1504318034.46,13833,21.69,73720.5,4.55,-5.97,-4.73,0,*78
1504318035.68,13834,21.69,73722.8,4.53,-6.51,-4.89,0,*75
1504318036.92,13835,21.69,73726.0,4.55,-6.73,-5.03,0,*71
1504318038.12,13836,21.69,73726.3,4.53,-7.49,-5.55,0,*7F
1504318039.37,13837,21.69,73722.5,4.53,-7.61,-5.61,0,*73
1504318040.62,13838,21.69,73724.8,4.53,-7.43,-5.07,0,*7C
1504318041.86,13839,21.69,73720.0,4.53,-7.73,-5.77,0,*79
1504318043.08,13840,21.69,73720.5,4.53,-7.87,-5.61,0,*7B
1504318044.3,13841,21.69,73722.8,4.51,-6.81,-4.99,0,*79
1504318045.55,13842,21.69,73726.0,4.49,-6.93,-5.03,0,*72
1504318046.76,13843,21.69,73722.3,4.51,-6.13,-4.45,0,*71
1504318047.97,13844,21.75,73726.8,4.51,-7.15,-5.47,0,*72
1504318049.23,13845,21.69,73724.8,4.51,-7.27,-5.19,0,*79
1504318050.46,13846,21.69,73724.0,4.49,-7.11,-5.15,0,*7A
1504318051.7,13847,21.69,73726.0,4.49,-8.03,-5.89,0,*72
1504318052.94,13848,21.69,73724.8,4.51,-7.43,-5.47,0,*7D
1504318054.15,13849,21.69,73724.5,4.49,-8.29,-6.27,0,*73
1504318055.39,13850,21.69,73726.0,4.49,-7.91,-5.65,0,*72
1504318056.63,13851,21.69,73728.0,4.47,-7.65,-5.39,0,*7F
1504318057.9,13852,21.69,73726.0,4.47,-6.97,-5.23,0,*7B
1504318059.14,13853,21.69,73722.5,4.47,-7.49,-5.11,0,*79
1504318060.36,13854,21.69,73722.3,4.45,-6.77,-4.73,0,*75
1504318061.6,13855,21.69,73720.8,4.47,-6.19,-4.05,0,*7F
1504318062.86,13856,21.69,73722.5,4.47,-5.15,-3.43,0,*76
1504318064.08,13857,21.69,73716.5,4.49,-5.65,-4.45,0,*7F
1504318065.27,13858,21.69,73720.5,4.49,-6.31,-4.33,0,*73
1504318066.49,13859,21.69,73718.3,4.49,-7.49,-5.23,0,*7C
1504318067.76,13860,21.69,73716.5,4.47,-7.61,-5.81,0,*7A
1504318068.95,13861,21.69,73716.3,4.45,-6.09,-4.61,0,*79
1504318070.21,13862,21.69,73712.3,4.47,-5.15,-3.67,0,*77
1504318071.45,13863,21.69,73716.5,4.47,-3.95,-1.95,0,*77
1504318072.69,13864,21.69,73716.8,4.47,-3.43,-2.15,0,*70
1504318073.94,13865,21.69,73718.8,4.47,-4.21,-1.83,0,*7E
1504318075.16,13866,21.69,73718.5,4.49,-3.31,-1.43,0,*79
1504318076.38,13867,21.69,73718.5,4.49,-3.55,-1.51,0,*79
1504318077.62,13868,21.69,73718.5,4.51,-3.55,-2.15,0,*7C
1504318078.81,13869,21.69,73716.5,4.49,-4.33,-2.27,0,*72
1504318080.08,13870,21.69,73716.8,4.51,-3.63,-1.99,0,*77
1504318081.32,13871,21.69,73716.8,4.51,-4.17,-2.47,0,*72
1504318082.52,13872,21.69,73722.8,4.51,-4.65,-2.91,0,*7F
1504318083.73,13873,21.69,73718.5,4.49,-4.69,-3.15,0,*76
1504318084.91,13874,21.69,73718.3,4.53,-4.99,-2.99,0,*70
1504318086.11,13875,21.69,73716.0,4.53,-4.57,-2.87,0,*7C
1504318087.29,13876,21.69,73716.5,4.53,-4.29,-2.91,0,*71
1504318088.48,13877,21.69,73720.3,4.53,-4.33,-2.91,0,*7B
1504318089.67,13878,21.69,73716.8,4.53,-4.09,-2.79,0,*7B
1504318090.89,13879,21.69,73720.0,4.53,-3.91,-3.43,0,*74
1504318092.1,13880,21.69,73718.8,4.53,-4.77,-3.75,0,*78
1504318093.31,13881,21.69,73720.8,4.53,-4.81,-3.31,0,*70
1504318094.51,13882,21.69,73720.0,4.55,-4.49,-3.23,0,*72
1504318095.71,13883,21.69,73722.0,4.53,-4.33,-3.79,0,*77
1504318096.93,13884,21.69,73722.3,4.53,-5.55,-4.69,0,*77
1504318098.14,13885,21.69,73722.5,4.53,-6.27,-4.29,0,*74
1504318099.36,13886,21.69,73724.5,4.53,-6.13,-4.77,0,*7B
1504318100.56,13887,21.69,73720.8,4.53,-7.19,-5.35,0,*76
1504318101.78,13888,21.69,73722.3,4.53,-6.81,-5.11,0,*7F
1504318102.99,13889,21.69,73714.8,4.51,-6.47,-4.57,0,*75
1504318104.21,13890,21.69,73716.0,4.51,-6.51,-4.33,0,*78
1504318105.42,13891,21.69,73716.5,4.53,-5.55,-3.55,0,*7B
1504318106.64,13892,21.69,73718.8,4.53,-5.11,-4.29,0,*74
1504318107.85,13893,21.69,73720.0,4.49,-7.05,-5.47,0,*70
1504318109.09,13894,21.69,73718.3,4.51,-7.57,-5.35,0,*7C
1504318110.35,13895,21.69,73718.8,4.51,-7.27,-4.93,0,*77
1504318111.59,13896,21.69,73718.8,4.51,-6.09,-4.77,0,*73
1504318112.81,13897,21.69,73718.5,4.49,-6.51,-4.93,0,*7C
1504318114.06,13898,21.69,73718.0,4.47,-6.51,-4.93,0,*7D
1504318115.28,13899,21.69,73718.0,4.49,-7.11,-5.11,0,*7C